Home > Weather > Germany > Völklingen > Past weeks

Flag for Germany Weather past 2 weeks in Völklingen, Saarland, Germany

46 °F


Feels Like: 44 °F
Forecast: 35 / 45 °F
Wind: 5 mph from Southwest

Location: Saarbruecken / Ensheim

Current Time: Dec 2, 2015 at 6:45:11 AM

Latest Report: Dec 2, 2015 at 5:50 AM

Visibility: 2 mi

Pressure: 30.39 "Hg

Humidity: 93%

Dew point: 45 °F

Location of VölklingenLocation

Historic Weather in Völklingen — Graph


Völklingen temperature yesterday

Maximum temperature yesterday: 50 °F (at 2:20 PM)
Minimum temperature yesterday: 46 °F (at 2:20 AM)
Average temperature yesterday: 48 °F

Past Weeks' High & Low Weather Summary

High57 °F (Nov 18, 1:20 AM)100% (Nov 17, 9:20 PM)30.39 "Hg (Nov 17, 9:20 PM)
Low25 °F (Nov 27, 5:50 AM)67% (Nov 18, 7:20 AM)29.42 "Hg (Nov 21, 9:50 AM)
Average41 °F91%29.98 "Hg
* Reported Nov 17 4:20 AM — Dec 2 4:20 AM, Völklingen, Weather by CustomWeather, © 2015

Note: Actual official high and low records may vary slightly from our data, if they occured in-between our weather recording intervals... More about our weather records


Völklingen weather history for previous 24 hours

Time TempWeatherWind HumidityBarometerVisibility
4:20 AM
Wed, Dec 2
46 °FFog.6 mph100%30.39 "Hg2 mi
3:20 AM46 °FPassing clouds.6 mph100%30.39 "Hg2 mi
2:50 AM48 °FPassing clouds.7 mph94%30.39 "Hg3 mi
2:20 AM48 °FLow clouds.7 mph94%30.39 "Hg3 mi
1:50 AM48 °FPassing clouds.9 mph94%30.39 "Hg4 mi
1:20 AM48 °FPassing clouds.10 mph94%30.39 "Hg2 mi
12:50 AM48 °FPassing clouds.9 mph94%30.39 "HgN/A
12:20 AM48 °FPassing clouds.10 mph94%30.39 "Hg6 mi
11:50 PM
Tue, Dec 1
48 °FLow clouds.10 mph94%30.39 "Hg4 mi
10:50 PM48 °FDrizzle. Fog.13 mph94%30.39 "Hg2 mi
10:20 PM48 °FDrizzle. Fog.13 mph94%30.39 "Hg2 mi
9:50 PM48 °FDrizzle. Fog.12 mph94%30.39 "Hg1 mi
9:20 PM48 °FDrizzle. Fog.12 mph94%30.39 "Hg2 mi
8:50 PM48 °FDrizzle. Fog.13 mph94%30.39 "Hg2 mi
8:20 PM48 °FDrizzle. Fog.13 mph94%30.39 "Hg3 mi
7:50 PM48 °FPassing clouds.12 mph94%30.39 "HgN/A
7:20 PM48 °FPassing clouds.13 mph94%30.39 "HgN/A
6:50 PM48 °FPassing clouds.13 mph94%30.39 "HgN/A
6:20 PM48 °FLow clouds.13 mph100%30.39 "HgN/A
5:50 PM48 °FLow clouds.12 mph94%30.39 "HgN/A
5:20 PM48 °FPassing clouds.13 mph94%30.39 "HgN/A
4:50 PM48 °FPassing clouds.16 mph94%30.36 "HgN/A
4:20 PM48 °FPartly sunny.16 mph94%30.36 "HgN/A
3:50 PM48 °FDrizzle. Broken clouds.14 mph94%30.36 "HgN/A
3:20 PM50 °FPartly sunny.14 mph88%30.36 "HgN/A
2:50 PM50 °FPartly sunny.14 mph88%30.36 "HgN/A
2:20 PM50 °FPartly sunny.16 mph88%30.36 "HgN/A
1:50 PM48 °FPartly sunny.14 mph94%30.33 "HgN/A
1:20 PM48 °FLow clouds.17 mph94%30.33 "HgN/A
12:50 PM48 °FLow clouds.17 mph94%30.33 "HgN/A
12:20 PM48 °FDrizzle. More clouds than sun.17 mph94%30.33 "Hg5 mi
11:50 AM48 °FDrizzle. More clouds than sun.21 mph94%30.33 "Hg5 mi
11:20 AM48 °FMore clouds than sun.17 mph94%30.33 "HgN/A
10:50 AM48 °FFog.16 mph94%30.33 "Hg3 mi
10:20 AM48 °FDrizzle. More clouds than sun.17 mph94%30.30 "Hg2 mi
9:50 AM48 °FLight rain. Broken clouds.17 mph94%30.30 "Hg6 mi
8:50 AM48 °FLight rain. Broken clouds.17 mph94%30.30 "HgN/A
8:20 AM48 °FLight rain. Broken clouds.17 mph94%30.27 "HgN/A
7:50 AM48 °FLight rain. Partly cloudy.17 mph94%30.27 "HgN/A
7:20 AM46 °FLight rain. Partly cloudy.16 mph93%30.27 "HgN/A
6:50 AM46 °FLight rain. Partly cloudy.16 mph100%30.24 "Hg6 mi
6:20 AM46 °FLight rain. Partly cloudy.17 mph93%30.24 "HgN/A
Weather by CustomWeather, © 2015

See weather overviewHow to use our weather pages